Flag for U.S.A. Weather past 2 weeks in Des Moines, Iowa, U.S.A.

Now
67 °F

Overcast.


Feels Like: 67 °F
Forecast: 64 / 87 °F
Wind: 12 mph from Southeast

Location: Des Moines International Airport

Current Time: Jul 25, 2014 at 9:47:08 AM

Latest Report: Jul 25, 2014 at 8:54 AM


Visibility: 10 mi

Pressure: 29.92 "Hg

Humidity: 73%

Dew point: 58 °F

Location of Des MoinesLocation

Historic Weather in Des Moines — Graph

°F

Des Moines temperature yesterday

Maximum temperature yesterday: 80 °F (at 12:54 PM)
Minimum temperature yesterday: 64 °F (at 5:54 AM)
Average temperature yesterday: 72 °F

Past Weeks' High & Low Weather Summary

 TemperatureHumidityPressure
High92 °F (Jul 21, 3:54 PM)93% (Jul 13, 1:54 AM)30.19 "Hg (Jul 13, 1:54 AM)
Low55 °F (Jul 15, 5:54 AM)36% (Jul 14, 5:54 PM)29.85 "Hg (Jul 21, 4:54 PM)
Average74 °F66%30.00 "Hg
* Reported Jul 10 8:54 AM — Jul 25 8:54 AM, Des Moines, Weather by CustomWeather, © 2014

Note: Actual official high and low records may vary slightly from our data, if they occured in-between our weather recording intervals... More about our weather records

Advertising

Des Moines weather history for previous 24 hours

 ConditionsComfort  
Time TempWeatherWind HumidityBarometerVisibility
8:54 AM
Jul 25
67 °FOvercast.12 mph73%29.92 "Hg10 mi
7:54 AM66 °FOvercast.16 mph75%29.89 "Hg10 mi
6:54 AM66 °FLight rain. Overcast.13 mph81%29.93 "Hg10 mi
5:54 AM66 °FOvercast.12 mph78%29.96 "Hg10 mi
4:54 AM66 °FMostly cloudy.17 mph81%29.90 "Hg10 mi
4:01 AM66 °FMostly cloudy.12 mph84%29.93 "Hg10 mi
2:54 AM68 °FMostly cloudy.8 mph73%29.88 "Hg10 mi
1:54 AM68 °FMostly cloudy.13 mph73%29.87 "Hg10 mi
12:54 AM70 °FPassing clouds.9 mph68%29.91 "Hg10 mi
11:54 PM
Jul 24
70 °FPassing clouds.6 mph68%29.93 "Hg10 mi
10:54 PM72 °FPassing clouds.10 mph64%29.89 "Hg10 mi
9:54 PM72 °FPassing clouds.13 mph66%29.88 "Hg10 mi
8:54 PM72 °FBroken clouds.15 mph68%29.87 "Hg9 mi
7:54 PM73 °FBroken clouds.12 mph71%29.99 "Hg10 mi
6:54 PM74 °FLight rain. Cloudy.10 mph69%30.11 "Hg10 mi
5:54 PM74 °FLight rain. Cloudy.7 mph69%30.04 "Hg10 mi
4:54 PM75 °FCloudy.7 mph62%30.00 "Hg10 mi
3:54 PM77 °FMostly cloudy.9 mph52%30.09 "Hg10 mi
2:54 PM80 °FMostly cloudy.10 mph47%30.06 "Hg10 mi
1:54 PM80 °FMore clouds than sun.13 mph47%30.06 "Hg10 mi
12:54 PM80 °FMostly cloudy.17 mph49%30.07 "Hg10 mi
11:54 AM77 °FMostly cloudy.8 mph50%30.15 "Hg10 mi
10:54 AM76 °FOvercast.3 mph60%30.15 "Hg10 mi
9:54 AM75 °FHigh level clouds.5 mph64%30.14 "Hg10 mi
Weather by CustomWeather, © 2014

See weather overviewHow to use our weather pages